Date,TemperatureHighF,TemperatureAvgF,TemperatureLowF,DewpointHighF,DewpointAvgF,DewpointLowF,HumidityHigh,HumidityAvg,HumidityLow,PressureMaxIn,PressureMinIn,WindSpeedMaxMPH,WindSpeedAvgMPH,GustSpeedMaxMPH,PrecipitationSumIn
2012-1-1,47.1,39.8,32.5,45.0,37.7,30.2,93,92,91,29.97,29.91,2,0,19,0.06
2012-1-2,49.6,46.3,40.6,45.1,43.0,37.9,92,88,82,30.02,29.77,3,1,21,0.04
2012-1-3,43.3,40.1,37.2,37.6,34.1,31.8,91,79,68,30.17,29.80,8,3,22,0.00
2012-1-4,43.3,40.0,36.1,39.6,33.7,28.9,89,78,67,29.98,29.76,9,4,22,0.00
2012-1-5,38.5,35.8,34.5,36.0,32.4,29.3,92,88,77,29.84,29.08,8,4,22,0.24
2012-1-6,38.1,34.8,32.7,30.6,28.6,26.2,86,78,72,30.03,29.25,8,4,22,0.00
2012-1-7,37.4,34.3,32.5,44.2,30.8,26.8,91,86,79,30.05,29.80,64,2,64,0.04
2012-1-8,38.5,35.6,34.5,33.3,32.4,31.5,91,88,80,30.06,29.87,4,1,21,0.06
2012-1-9,36.5,35.0,33.6,34.3,32.4,31.1,92,90,83,30.23,30.07,4,1,19,0.14
2012-1-10,41.2,37.3,35.8,36.3,32.7,29.7,92,83,73,30.45,30.17,7,2,22,0.02
2012-1-11,42.6,38.3,34.5,36.5,34.0,31.3,89,85,76,30.43,30.37,5,1,22,0.00
2012-1-12,43.0,40.2,34.5,37.2,36.0,31.8,90,85,80,30.40,29.95,8,3,22,0.02
2012-1-13,35.2,32.2,30.7,31.1,29.1,26.8,91,88,78,30.04,27.06,7,1,57,0.00
2012-1-14,32.0,30.9,30.0,28.0,26.0,23.7,90,84,75,30.13,30.03,8,4,22,0.00
2012-1-15,30.4,28.2,26.4,23.5,21.0,18.5,82,76,68,30.22,30.11,3,1,19,0.00
2012-1-16,30.0,24.9,16.5,26.2,19.1,11.5,87,81,75,30.27,30.21,2,0,15,0.00
2012-1-17,33.4,31.1,29.5,29.5,27.6,26.2,90,88,84,30.35,30.21,3,0,19,0.00
2012-1-18,36.1,30.2,23.2,27.3,22.9,19.2,87,76,60,30.37,30.16,4,1,22,0.00
2012-1-19,38.5,33.8,31.6,36.3,31.1,24.8,92,90,73,30.15,28.85,4,1,20,0.38
2012-1-20,35.2,32.6,29.8,32.2,29.1,25.2,92,87,77,29.89,29.70,7,1,22,0.04
2012-1-21,36.0,31.6,29.3,33.8,28.4,25.0,92,89,82,29.94,29.49,4,1,21,0.18
2012-1-22,38.3,35.3,32.5,34.7,32.1,30.6,92,88,77,29.68,29.51,6,2,22,0.08
2012-1-23,39.0,35.9,33.3,34.7,31.7,30.0,91,85,74,29.90,29.63,7,2,22,0.02
2012-1-24,33.4,32.0,30.9,31.1,29.5,28.6,92,91,89,30.14,29.89,3,0,20,0.04
2012-1-25,31.6,29.8,27.3,29.3,26.7,-23.1,92,90,11,30.20,27.22,0,0,0,0.00
2012-1-26,27.3,24.8,20.1,23.4,20.5,16.2,89,85,78,30.22,30.18,1,0,0,0.00
2012-1-27,28.0,22.8,17.2,23.0,18.7,13.3,89,86,81,30.29,30.21,0,0,0,0.00
2012-1-28,27.0,24.2,21.7,23.5,20.9,19.0,90,88,86,30.32,30.28,0,0,0,0.00
2012-1-29,28.0,24.8,21.0,23.5,20.3,17.4,90,85,80,30.35,30.29,4,1,23,0.00
2012-1-30,29.3,21.6,16.3,17.1,14.3,10.2,87,76,62,30.35,30.30,5,3,22,0.00
2012-1-31,24.4,17.4,11.5,13.8,10.3,7.0,86,76,64,30.32,30.23,7,3,22,0.00
2012-2-1,20.1,12.8,7.2,6.4,3.8,-0.4,80,70,52,30.35,30.28,5,2,22,0.00
2012-2-2,13.8,8.2,4.3,1.8,-0.1,-1.5,81,72,58,30.42,30.34,4,0,19,0.00
2012-2-3,91.9,13.9,3.6,99.9,8.7,-2.4,91,71,58,30.49,30.39,0,0,57,0.00
2012-2-4,16.0,9.0,3.4,7.0,2.5,-2.0,85,77,64,30.53,30.46,1,0,0,0.00
2012-2-5,14.2,7.5,1.0,8.2,1.8,-4.5,85,79,71,30.49,30.43,1,0,0,0.00
2012-2-6,11.5,5.0,-2.4,1.9,-2.2,-8.1,82,75,63,30.45,30.40,0,0,0,0.00
2012-2-7,11.8,8.7,5.5,6.6,3.5,0.1,84,81,76,30.51,30.38,1,0,0,0.00
2012-2-8,19.0,12.0,7.5,15.3,6.3,3.2,86,79,68,30.55,30.45,61,1,0,0.00
2012-2-9,19.2,13.3,5.7,16.0,9.2,0.5,88,85,81,30.46,30.26,3,0,10,0.00
2012-2-10,15.1,9.8,4.8,8.2,4.5,0.0,85,81,74,30.57,30.46,0,0,0,0.00
2012-2-11,13.6,5.8,-3.5,4.6,-0.2,-9.0,86,78,67,30.50,24.26,0,0,0,0.00
2012-2-12,20.1,6.0,-5.6,9.7,-1.0,-11.7,84,75,63,30.40,30.22,1,0,0,0.00
2012-2-13,21.0,15.1,5.7,16.5,10.7,-0.4,87,84,78,30.22,29.98,2,0,7,0.00
2012-2-14,28.6,22.6,17.8,25.7,18.6,13.8,90,86,80,29.99,29.70,3,0,21,0.00
2012-2-15,34.3,31.7,28.8,30.2,26.0,20.5,91,80,67,29.76,29.35,9,4,22,0.00
2012-2-16,32.7,29.3,27.1,25.7,20.5,17.6,86,72,59,30.14,29.78,7,2,22,0.00
2012-2-17,37.2,34.5,29.8,34.3,31.9,26.4,92,90,88,30.10,30.00,3,0,21,0.10
2012-2-18,42.1,35.7,31.6,36.7,32.6,29.3,92,89,79,30.10,29.90,3,1,16,0.00
2012-2-19,37.2,34.5,30.0,34.2,30.8,25.9,92,87,72,30.23,29.80,4,1,16,0.12
2012-2-20,34.2,29.6,23.4,26.6,23.8,18.9,89,81,62,30.49,30.23,4,0,11,0.00
2012-2-21,36.9,28.9,19.9,29.3,22.8,15.8,90,79,59,30.47,30.35,4,1,14,0.00
2012-2-22,38.7,34.0,31.6,35.4,31.0,28.9,92,89,83,30.42,30.19,1,0,11,0.00
2012-2-23,41.9,38.0,33.1,36.5,33.2,27.5,91,83,67,30.19,30.04,7,3,22,0.00
2012-2-24,48.0,43.4,38.7,42.8,39.9,35.8,91,88,82,30.19,30.09,6,3,21,0.00
2012-2-25,46.4,41.5,38.1,41.9,34.0,31.3,89,75,60,30.16,30.01,6,2,21,0.00
2012-2-26,38.8,34.9,28.2,33.4,30.2,23.9,91,83,74,30.22,29.99,5,1,14,0.10
2012-2-27,39.4,32.0,24.1,30.0,25.1,19.6,86,76,62,30.28,30.15,4,0,12,0.00
2012-2-28,44.1,38.5,32.0,99.9,37.1,30.4,91,85,82,30.16,30.03,2,0,13,0.00
2012-2-29,50.9,46.7,44.2,45.7,43.5,41.2,90,88,82,30.24,30.07,4,1,14,0.00
2012-3-1,53.2,47.4,43.0,47.7,44.2,40.5,92,89,81,30.25,30.22,2,0,8,0.00
2012-3-2,48.4,43.2,35.8,42.8,38.6,32.5,92,84,75,30.32,30.27,0,0,0,0.00
2012-3-3,35.4,35.1,34.5,32.5,32.0,31.3,90,88,88,30.32,30.31,0,0,0,0.00
2012-3-4,41.5,36.9,31.8,31.6,28.5,23.7,75,71,66,30.22,30.09,0,0,0,0.00
2012-3-5,44.8,34.0,27.9,28.4,24.2,20.1,82,69,48,30.19,30.06,1,0,0,0.00
2012-3-6,38.8,31.5,24.4,99.9,23.2,17.2,90,70,45,30.35,30.18,1,0,0,0.00
2012-3-7,42.4,31.6,21.9,27.3,21.8,15.8,82,68,52,30.34,29.98,1,0,0,0.00
2012-3-8,38.1,35.0,32.4,35.2,30.8,24.1,91,84,69,30.43,29.95,2,0,11,0.08
2012-3-9,44.4,35.4,28.6,31.8,27.8,23.0,90,75,53,30.60,30.44,2,0,7,0.00
2012-3-10,49.1,38.4,28.6,37.4,31.6,23.0,87,77,59,30.56,30.36,3,1,15,0.00
2012-3-11,42.4,40.9,39.7,38.5,37.0,35.4,91,86,81,33.31,30.29,4,2,15,0.00
2012-3-12,44.4,42.1,39.6,40.5,38.9,37.2,92,88,84,30.33,30.23,4,0,15,0.00
2012-3-13,44.8,41.9,40.6,38.8,37.4,36.1,88,84,78,30.38,30.33,2,0,12,0.00
2012-3-14,41.9,40.0,38.3,36.7,35.7,34.2,88,85,80,30.42,30.35,2,0,15,0.00
2012-3-15,49.3,40.8,33.4,38.8,34.7,29.1,88,79,64,30.42,30.31,0,0,6,0.00
2012-3-16,64.9,46.1,30.4,49.1,37.3,26.4,91,74,48,30.31,30.15,2,0,11,0.00
2012-3-17,66.9,50.5,34.5,46.6,37.1,30.0,87,63,36,30.16,30.00,2,0,13,0.00
2012-3-18,65.3,51.0,37.2,42.4,37.0,30.4,82,61,38,30.06,29.90,4,0,19,0.00
2012-3-19,47.5,41.0,30.9,39.4,33.3,24.3,90,75,56,30.48,30.08,2,0,11,0.06
2012-3-20,54.3,38.7,27.1,33.6,26.3,22.1,87,65,31,30.55,30.47,3,0,11,0.00
2012-3-21,57.7,44.3,30.9,42.1,34.2,24.4,82,69,48,30.56,30.49,0,0,0,0.00
2012-3-22,55.8,46.8,38.8,46.8,41.2,34.5,90,81,69,30.52,30.37,0,0,0,0.00
2012-3-23,58.1,49.2,42.4,47.5,43.4,39.2,88,81,63,30.37,30.27,0,0,0,0.10
2012-3-24,59.7,48.1,37.2,46.4,40.6,34.5,91,77,52,30.30,30.24,0,0,0,0.00
2012-3-25,59.9,48.8,37.0,42.3,36.1,32.0,90,64,36,30.41,30.29,2,0,17,0.00
2012-3-26,53.4,45.6,38.3,36.9,30.9,23.5,85,59,32,30.51,30.41,1,0,0,0.00
2012-3-27,60.6,46.0,30.6,43.3,35.2,24.1,82,67,50,30.48,30.33,4,1,16,0.06
2012-3-28,62.6,51.5,38.3,48.2,39.9,34.2,89,67,41,30.39,30.13,35,1,35,0.00
2012-3-29,50.5,46.5,40.8,37.4,36.0,33.8,84,67,57,30.12,29.86,7,3,21,0.00
2012-3-30,46.0,42.5,39.7,42.6,38.4,34.3,90,85,75,29.88,29.81,7,3,22,0.12
2012-3-31,45.3,41.4,32.7,39.0,34.3,26.1,84,76,61,29.87,29.61,10,4,22,0.00
2012-4-1,46.6,37.7,30.9,26.8,24.8,21.9,78,61,40,29.99,29.84,4,1,57,0.00
2012-4-2,47.5,41.2,35.8,36.9,31.9,23.9,80,69,61,29.84,29.77,2,0,13,0.00
2012-4-3,59.9,47.3,38.1,41.9,37.5,33.1,84,70,46,29.77,29.64,1,0,0,0.00
2012-4-4,60.4,50.2,40.6,45.5,40.5,35.4,87,71,46,29.89,29.64,7,1,22,0.00
2012-4-5,44.8,40.7,37.0,40.6,37.5,34.7,91,88,83,29.97,29.90,3,1,6,0.10
2012-4-6,40.3,37.6,35.2,37.2,34.7,32.5,91,89,87,29.94,29.70,3,0,7,0.00
2012-4-7,40.1,36.1,31.5,36.3,30.0,24.6,89,79,59,29.70,29.59,5,2,17,0.02
2012-4-8,35.4,31.8,27.7,25.2,21.4,17.8,79,67,52,29.96,29.69,5,2,17,0.00
2012-4-9,48.9,35.6,21.9,33.4,25.4,16.2,83,68,49,29.96,27.01,4,1,19,0.00
2012-4-10,41.7,39.0,37.6,39.0,34.3,32.4,90,83,77,29.71,29.66,0,0,0,0.00
2012-4-11,55.6,46.8,39.9,45.1,37.1,30.6,89,69,57,32.11,29.47,58,1,9,0.51
2012-4-12,47.1,41.7,38.3,42.1,38.3,34.5,91,88,74,29.63,29.56,1,0,11,0.38
2012-4-13,50.5,41.0,35.8,37.6,34.9,32.5,91,79,61,29.68,29.62,0,0,0,0.08
2012-4-14,52.5,44.8,35.4,38.8,35.9,30.7,87,72,53,29.68,29.59,1,0,114,0.65
2012-4-15,47.8,43.8,42.1,41.7,39.3,35.6,91,84,72,29.71,29.59,1,0,7,0.36
2012-4-16,41.9,39.6,35.8,39.6,34.9,27.0,92,83,65,30.01,29.72,4,1,18,0.16
2012-4-17,46.8,37.9,29.5,32.2,28.2,24.4,87,69,51,30.01,29.73,1,0,10,0.00
2012-4-18,51.6,41.5,29.8,36.5,31.4,24.4,85,68,53,29.73,29.45,2,0,10,0.00
2012-4-19,55.6,46.0,36.3,44.2,38.1,30.2,91,74,59,29.45,28.27,2,0,8,0.30
2012-4-20,52.0,43.1,33.4,46.2,39.2,31.1,91,86,71,29.57,29.39,2,0,7,0.02
2012-4-21,55.9,47.2,39.9,43.2,39.2,36.3,89,75,53,29.67,28.47,3,0,21,0.00
2012-4-22,51.4,44.9,39.4,42.3,38.8,35.1,90,80,61,29.81,29.65,3,0,85,0.02
2012-4-23,54.7,45.2,35.1,41.9,36.8,31.6,89,74,51,29.82,29.62,2,0,15,0.00
2012-4-24,55.6,47.6,39.0,46.0,41.4,34.9,91,79,66,29.62,29.43,2,0,114,0.32
2012-4-25,57.6,48.4,40.8,42.8,40.7,38.5,91,76,51,29.76,29.56,4,1,19,0.00
2012-4-26,71.4,57.0,41.4,49.6,44.0,36.3,84,64,43,29.93,29.75,2,0,8,0.00
2012-4-27,75.2,61.0,48.4,57.2,50.0,42.4,84,68,50,30.06,29.93,3,0,6,0.00
2012-6-10,56.8,55.0,53.2,53.2,51.7,50.0,89,89,87,29.84,29.79,0,0,0,0.02
2012-6-11,63.9,56.1,51.4,54.9,51.2,48.6,90,84,65,29.79,29.66,2,0,18,0.18
2012-6-12,64.9,58.1,51.8,55.8,51.9,49.3,91,81,61,29.67,29.60,1,0,0,0.00
2012-6-13,59.9,56.5,53.6,54.9,52.2,50.0,91,85,76,29.99,29.67,2,0,10,0.88
2012-6-14,53.8,52.4,49.3,51.3,49.7,46.4,91,91,89,30.14,29.99,2,0,0,0.08
2012-6-15,69.4,57.5,43.3,58.5,51.1,8.8,91,80,58,30.15,30.07,2,0,0,0.00
2012-6-16,84.0,68.9,53.1,63.7,57.0,49.6,90,69,39,30.10,29.99,6,1,21,0.00
2012-6-17,75.7,67.0,58.3,58.8,55.7,52.2,84,68,48,30.23,30.06,62,2,13,0.00
2012-6-18,85.8,72.4,58.3,66.6,60.8,51.8,83,68,48,30.19,29.98,4,0,8,0.00
2012-6-19,72.1,65.6,58.8,63.0,59.0,54.5,89,79,71,30.20,30.04,1,0,0,0.12
2012-6-20,78.6,69.7,61.5,67.3,62.9,57.4,88,80,66,30.04,29.89,3,0,7,0.00
2012-6-21,73.8,67.7,60.4,65.3,62.2,56.8,91,83,68,29.91,29.86,3,1,12,0.00
2012-6-22,73.0,65.0,57.4,59.0,54.1,48.6,90,70,44,30.19,29.92,6,2,17,0.00
2012-6-23,71.6,61.8,49.1,52.7,49.3,44.1,86,65,45,30.26,29.03,3,1,57,0.00
2012-6-24,76.6,64.6,51.6,56.7,51.8,46.6,86,65,43,30.21,26.95,4,1,19,0.00
2012-6-25,65.1,59.7,55.6,53.1,48.6,23.7,77,67,25,30.39,28.63,5,2,22,0.00
2012-6-26,65.1,57.5,50.5,76.6,48.5,45.5,86,71,57,32.78,30.04,30,2,15,0.02
2012-6-27,72.3,59.7,44.8,59.4,49.7,39.9,87,71,46,30.17,30.00,4,0,15,0.04
2012-6-28,74.5,66.3,58.6,61.3,58.7,55.2,89,77,61,30.01,29.92,2,0,8,0.02
2012-6-29,83.3,72.4,62.8,64.9,61.1,57.2,85,69,51,29.95,29.88,2,0,0,0.00
2012-6-30,81.0,69.9,64.9,68.0,63.0,59.7,87,79,65,29.94,29.89,0,0,0,0.00
2012-7-1,77.5,70.8,61.5,67.3,61.4,57.7,88,73,60,30.20,29.88,9,1,20,0.20
2012-7-2,71.6,63.9,57.4,65.1,59.1,54.1,90,85,77,30.18,30.00,6,1,16,0.54
2012-7-3,68.7,63.3,59.7,65.1,60.4,56.8,91,90,86,30.10,30.01,2,0,7,0.22
2012-7-4,72.3,66.1,60.6,64.9,61.5,57.9,91,85,73,30.06,29.96,1,0,57,0.00
2012-7-5,79.9,68.5,63.1,70.2,63.9,60.1,90,86,71,29.98,29.83,5,0,16,0.04
2012-7-6,80.4,69.0,61.3,68.5,62.8,58.5,91,81,62,29.97,29.85,4,0,15,0.45
2012-7-7,68.0,64.1,60.4,64.9,61.2,57.7,91,90,89,29.99,29.92,4,1,12,0.26
2012-7-8,76.6,66.5,56.5,66.9,59.4,54.0,91,79,55,29.98,29.85,4,0,11,0.00
2012-7-9,72.3,65.2,57.2,57.4,54.8,52.5,87,71,51,29.98,29.92,4,1,19,0.00
2012-7-10,76.1,65.7,56.1,61.2,56.5,52.0,88,73,50,29.99,29.92,2,0,10,0.00
2012-7-11,73.0,64.9,58.3,61.5,54.7,49.3,88,71,48,29.98,29.92,4,1,20,0.00
2012-7-12,64.9,57.4,48.7,53.1,49.8,44.4,88,76,57,30.04,29.94,6,1,21,0.14
2012-7-13,61.7,53.8,45.1,55.4,49.6,41.7,90,86,76,30.04,29.78,2,0,57,0.02
2012-7-14,70.3,61.7,55.2,58.6,53.7,48.4,90,76,56,29.88,29.40,6,2,22,0.04
2012-7-15,67.5,57.6,51.1,57.2,51.1,46.0,88,79,61,30.06,29.88,5,1,17,0.06
2012-7-16,61.3,54.7,49.6,53.2,48.9,46.2,90,81,64,33.17,30.06,5,1,15,0.02
2012-7-17,62.8,57.3,52.5,58.8,53.2,48.2,90,86,77,30.20,30.07,5,2,18,0.20
2012-7-18,71.4,62.2,54.9,59.4,55.4,52.0,91,79,60,30.18,29.89,4,1,16,0.02
2012-7-19,72.3,64.9,57.4,58.6,54.2,50.0,88,69,55,29.91,29.80,7,2,22,0.00
2012-7-20,65.5,60.1,56.1,56.1,52.0,49.5,84,75,60,30.03,29.91,3,0,14,0.06
2012-7-21,61.0,55.5,52.0,54.9,51.7,49.1,90,87,78,30.20,30.02,2,0,7,0.28
2012-7-22,58.1,53.1,49.3,52.5,49.3,45.3,91,87,77,30.38,30.20,2,0,0,0.06
2012-7-23,69.4,59.1,45.0,54.1,49.7,41.5,91,73,55,30.41,30.28,2,0,0,0.00
2012-7-24,78.6,68.5,56.8,63.0,57.0,50.7,80,67,57,30.27,30.06,2,0,8,0.00
2012-7-25,75.0,67.6,60.6,65.8,61.0,55.0,88,80,69,30.06,29.97,3,0,10,0.00
2012-7-26,81.0,72.0,63.3,68.0,64.0,60.1,90,77,59,30.06,29.99,2,0,7,0.00
2012-7-27,82.6,73.1,62.2,68.2,63.5,58.3,89,73,56,30.06,29.90,0,0,0,0.00
2012-7-28,84.2,73.2,63.7,67.1,62.4,58.8,86,70,49,29.90,29.83,3,0,14,0.00
2012-7-29,73.2,68.0,61.3,64.9,60.9,52.7,88,78,67,30.02,29.83,5,1,16,0.00
2012-7-30,72.1,63.3,52.7,53.8,50.9,46.6,83,65,48,30.11,30.03,4,1,11,0.00
2012-7-31,70.7,64.3,57.6,57.0,54.0,49.8,82,70,58,30.13,30.08,2,0,9,0.00
2012-8-1,78.1,67.8,56.3,60.1,56.6,51.6,86,69,51,30.11,29.99,2,0,9,0.00
2012-8-2,83.8,72.0,59.0,64.0,57.9,33.8,83,63,30,30.00,28.81,3,0,57,0.00
2012-8-3,76.8,70.2,64.0,62.2,58.9,55.6,86,68,53,30.06,30.01,4,1,13,0.02
2012-8-4,78.6,68.0,56.1,61.5,57.4,51.6,87,70,48,30.05,29.95,2,0,8,0.00
2012-8-5,81.1,69.9,59.0,65.5,59.8,53.8,86,71,51,29.97,29.57,2,0,0,0.00
2012-8-6,77.7,69.0,61.9,63.0,60.2,58.3,88,74,55,30.03,29.85,6,1,16,0.12
2012-8-7,69.6,63.1,56.7,57.6,54.1,50.9,89,73,56,30.20,30.03,4,1,20,0.00
2012-8-8,60.4,57.7,56.1,51.4,50.6,50.0,82,77,70,30.23,30.20,0,0,0,0.00
2012-8-11,62.1,59.1,52.5,51.6,49.9,46.2,81,71,65,30.20,30.16,2,0,11,0.00
2012-8-12,66.9,57.7,46.8,53.2,48.1,42.8,88,71,52,30.16,30.04,2,0,0,0.00
2012-8-13,66.9,58.5,51.1,52.2,47.1,42.6,82,67,48,30.08,30.02,1,0,0,0.00
2012-8-14,70.9,59.9,45.7,51.6,46.4,40.3,85,63,46,30.05,29.99,2,0,8,0.00
2012-8-15,74.5,62.4,48.4,52.7,47.4,41.5,85,61,31,30.05,29.95,1,0,0,0.00
2012-8-16,70.0,61.6,53.1,59.0,52.7,45.5,85,73,62,30.17,29.97,3,0,57,0.04
2012-8-17,72.3,63.2,50.4,56.1,52.2,46.6,89,69,44,30.23,30.17,2,0,0,0.00
2012-8-18,78.4,66.7,52.9,58.3,53.9,48.0,87,65,48,30.24,30.19,1,0,6,0.00
2012-8-19,88.7,72.3,56.5,60.4,55.7,50.4,83,59,37,30.25,30.14,2,0,6,0.00
2012-8-20,95.9,78.0,59.5,64.4,57.2,51.6,78,53,27,30.16,30.04,4,1,16,0.00
2012-8-21,84.9,74.8,68.0,67.6,63.8,43.3,84,70,39,30.19,30.01,4,0,10,0.22
2012-8-22,78.4,70.0,63.0,69.1,62.7,57.0,90,78,59,30.05,29.93,4,1,16,0.23
2012-8-23,78.4,66.7,56.5,57.4,54.3,51.4,87,67,39,30.06,29.93,2,0,11,0.00
2012-8-24,77.5,67.8,59.0,62.8,58.6,51.8,87,73,60,29.93,29.81,4,1,20,0.10
2012-8-25,78.1,69.1,62.2,62.8,60.7,58.6,88,76,58,29.88,29.82,5,1,17,0.16
2012-8-26,71.2,63.1,58.3,63.3,54.7,49.5,90,75,47,30.02,29.86,5,1,18,0.47
2012-8-27,67.6,60.5,56.1,54.7,52.6,49.1,88,76,61,30.19,30.02,3,1,11,0.00
2012-8-28,75.9,63.3,49.8,55.9,51.3,44.6,86,67,40,30.18,30.06,3,0,8,0.00
2012-8-29,75.4,67.5,59.5,60.8,56.9,52.0,84,69,57,30.17,30.09,3,0,8,0.00
2012-8-30,77.5,65.8,55.2,61.7,57.0,50.5,87,74,57,30.11,29.98,3,0,11,0.86
2012-8-31,59.7,57.5,55.0,55.8,54.7,52.5,91,90,87,30.07,29.97,0,0,0,0.70
2012-9-2,62.8,58.9,54.7,57.2,54.6,51.4,90,86,80,30.28,30.22,0,0,0,0.00
2012-9-3,66.9,59.9,52.7,59.0,55.1,49.8,91,84,74,30.25,30.18,0,0,0,0.00
2012-9-4,67.8,59.7,51.4,58.3,53.9,48.4,91,81,67,30.21,30.13,0,0,0,0.00
2012-9-5,69.1,60.0,51.6,60.1,54.5,48.2,91,82,68,30.15,30.07,0,0,0,0.00
2012-9-7,66.9,63.5,58.3,52.3,48.8,45.3,68,59,50,30.23,30.16,0,0,0,0.00
2012-9-8,71.8,62.6,53.1,59.2,52.9,45.0,80,71,61,30.20,30.12,0,0,0,0.00
2012-9-15,57.7,54.0,50.2,49.1,47.4,44.4,87,78,70,30.12,29.88,0,0,0,0.00
2012-9-16,64.8,54.4,44.2,52.9,47.6,40.6,90,78,63,30.13,30.01,1,0,0,0.00
2012-9-17,64.6,54.5,44.1,55.8,49.1,40.5,90,82,71,30.00,29.97,0,0,0,0.00
2012-9-18,71.4,58.7,46.9,59.7,52.2,43.9,91,80,62,30.00,29.83,2,0,57,0.14
2012-9-19,57.9,52.4,48.4,54.1,48.2,43.7,91,86,69,30.10,29.82,6,1,19,0.40
2012-9-20,55.0,46.6,37.4,43.7,40.3,34.2,90,79,59,30.27,30.14,2,0,13,0.00
2012-9-21,56.3,47.5,37.2,46.0,41.0,34.0,90,79,61,30.22,29.93,0,0,0,0.00
2012-9-22,59.5,50.1,44.2,52.3,44.6,38.8,91,82,62,30.10,29.84,4,1,20,0.16
2012-9-23,55.9,47.1,38.1,46.8,41.0,34.3,90,80,66,30.12,29.86,0,0,0,0.00
2012-9-24,60.4,52.0,44.4,54.3,47.6,40.8,90,85,79,29.86,29.60,2,0,9,0.00
2012-9-25,67.5,57.0,46.2,54.7,49.9,42.8,90,78,61,29.76,29.69,1,0,9,0.00
2012-9-26,68.9,59.1,49.3,59.7,53.4,45.5,90,82,69,29.70,29.63,0,0,0,0.00
2012-9-27,58.8,58.4,58.3,54.7,54.2,54.1,86,86,86,29.63,29.62,0,0,0,0.00
2012-9-29,54.0,52.8,51.4,49.5,48.8,47.7,87,86,84,30.08,30.03,0,0,0,0.00
2012-9-30,51.4,51.2,50.9,47.7,47.4,47.1,87,87,87,30.09,30.09,0,0,0,0.00
2012-10-1,55.6,52.9,49.3,50.2,48.2,45.5,88,84,81,30.07,30.03,0,0,57,0.00
2012-10-2,63.3,52.9,45.3,52.5,46.2,40.5,90,79,54,30.09,30.04,1,0,7,0.00
2012-10-3,63.5,51.7,40.8,52.5,45.6,37.2,90,80,64,30.07,29.99,2,0,14,0.00
2012-10-4,64.0,54.0,47.1,54.5,48.7,42.3,89,83,63,30.05,29.75,6,1,22,0.21
2012-10-5,60.8,50.6,40.6,54.3,46.0,37.4,90,84,77,30.08,29.89,3,1,15,0.00
2012-10-6,69.1,60.6,54.1,56.1,52.5,47.8,87,76,52,29.97,29.84,7,2,22,0.00
2012-10-7,53.6,46.8,44.2,47.7,43.5,40.1,91,88,80,30.14,29.88,2,0,9,0.52
2012-10-8,51.6,44.5,38.1,40.8,38.6,34.2,88,80,64,30.16,29.96,1,0,7,0.00
2012-10-9,53.1,43.3,35.8,46.0,38.0,32.4,90,82,65,29.96,29.80,2,0,12,0.00
2012-10-10,48.0,40.6,32.5,40.3,35.6,29.1,90,82,71,29.98,29.92,0,0,8,0.00
2012-10-11,49.8,40.4,31.3,40.3,35.2,27.5,90,82,68,30.00,29.91,0,0,0,0.00
2012-10-12,46.4,41.2,34.9,42.8,38.0,31.5,91,87,84,32.86,29.82,57,1,0,0.22
2012-10-13,52.2,44.4,38.1,46.6,40.9,35.8,92,88,73,30.00,29.78,3,0,12,0.02
2012-10-14,54.0,45.5,38.1,46.2,41.3,35.2,91,86,73,29.77,29.58,2,0,13,0.00
2012-10-15,47.3,43.6,40.3,44.8,40.1,37.2,91,88,81,29.90,29.56,4,0,12,0.00
2012-10-16,48.4,43.4,40.1,41.2,38.8,35.6,90,84,73,29.93,29.84,3,0,9,0.00
2012-10-17,56.8,46.4,35.4,48.6,41.7,32.2,91,84,72,30.06,29.93,2,0,11,0.00
2012-10-18,56.8,47.7,40.6,51.4,44.2,37.6,91,88,81,30.10,30.02,0,0,0,0.00
2012-10-19,52.2,49.3,46.6,49.3,46.7,43.9,91,90,89,30.12,30.06,0,0,0,0.00
2012-10-20,49.6,47.7,46.0,47.5,45.3,43.5,92,91,91,30.14,30.08,0,0,0,0.00
2012-10-21,47.8,45.9,43.7,45.7,43.7,41.5,92,92,92,30.17,30.10,0,0,0,0.02
2012-10-22,49.1,47.0,45.1,46.9,44.8,43.0,92,92,91,30.25,30.16,0,0,0,0.00
2012-10-23,50.4,48.4,45.9,48.2,46.2,43.7,92,92,91,30.28,30.23,0,0,0,0.00
2012-10-24,45.9,45.2,44.4,43.7,43.0,42.3,92,92,92,30.22,30.06,0,0,0,0.02
2012-10-25,47.8,45.6,43.3,44.4,42.9,41.2,92,90,86,30.06,29.84,2,0,9,0.00
2012-10-26,44.2,38.3,32.7,41.2,34.9,30.7,92,87,82,29.91,29.57,2,0,7,0.08
2012-10-27,33.6,31.6,29.3,31.6,29.5,27.0,93,92,92,29.67,28.22,0,0,57,0.06
2012-10-28,33.1,31.0,28.0,31.1,28.7,25.5,92,92,91,29.99,29.68,0,0,0,0.16
2012-10-29,33.3,28.9,26.2,30.9,26.4,23.5,92,91,90,30.00,29.84,1,0,6,0.00
2012-10-30,35.8,32.5,26.6,33.6,30.3,23.7,93,92,90,29.83,29.66,2,0,8,0.00
2012-10-31,47.5,38.9,34.5,44.6,36.0,32.7,93,89,77,29.75,29.54,0,0,0,0.00
2012-11-1,40.8,38.4,34.5,38.7,36.3,32.7,93,92,91,29.54,29.29,1,0,0,0.14
2012-11-2,46.2,40.4,34.0,40.3,37.2,32.2,93,88,74,29.70,29.43,2,0,85,0.04
2012-11-3,52.0,45.3,40.6,46.4,41.5,38.5,92,86,81,29.74,29.63,2,0,11,0.00
2012-11-4,47.5,44.9,42.4,45.3,42.3,39.9,92,90,84,29.78,29.54,2,0,7,0.39
2012-11-5,45.0,42.8,39.0,42.8,40.6,36.7,93,92,90,29.75,29.53,2,0,10,0.36
2012-11-6,40.3,37.6,34.9,37.6,35.2,32.4,93,91,87,30.06,28.27,2,0,15,0.32
2012-11-7,44.4,41.1,36.0,40.8,37.8,33.4,92,88,85,30.23,30.01,5,1,21,0.00
2012-11-8,44.2,42.9,41.4,40.5,39.0,37.6,91,86,84,30.21,30.03,3,1,21,0.00
2012-11-9,46.4,41.2,36.1,41.9,37.8,33.3,91,88,83,30.11,29.97,1,0,7,0.00
2012-11-10,44.2,38.3,33.4,40.3,35.6,30.6,92,90,86,29.96,29.75,0,0,0,0.00
2012-11-11,41.9,40.5,38.1,40.1,38.5,35.8,93,92,91,30.07,29.75,0,0,0,0.24
2012-11-12,45.9,43.3,41.5,43.9,41.4,39.7,93,93,93,30.36,30.08,0,0,0,0.02
2012-11-13,43.3,39.1,32.5,40.8,36.9,30.0,93,91,84,30.50,30.36,0,0,0,0.00
2012-11-14,38.8,32.9,28.9,36.5,30.5,26.6,92,91,89,30.50,30.34,0,0,0,0.00
2012-11-15,34.0,31.9,29.1,31.8,29.8,26.8,93,93,92,30.34,30.17,0,0,0,0.00
2012-11-16,37.2,35.5,34.0,35.2,33.6,31.8,93,93,92,30.17,30.06,0,0,0,0.00
2012-11-17,38.7,37.4,35.2,35.8,34.9,32.5,92,91,89,30.06,29.93,0,0,0,0.00
2012-11-18,37.2,35.0,32.5,35.1,32.8,30.4,93,92,90,30.03,29.91,0,0,0,0.00
2012-11-19,43.7,37.6,34.5,40.5,35.3,32.4,93,92,88,30.13,30.03,0,0,0,0.00
2012-11-20,42.3,40.3,37.8,40.5,38.5,36.0,93,93,93,30.14,30.11,0,0,0,0.00
2012-11-21,41.4,40.5,39.4,39.6,38.7,37.6,93,93,92,30.14,30.00,1,0,8,0.04
2012-11-22,42.8,39.9,37.9,40.6,37.8,35.6,93,92,91,30.25,30.13,0,0,0,0.00
2012-11-23,43.2,40.9,39.0,41.2,38.9,37.2,93,93,92,30.22,30.13,0,0,0,0.00
2012-11-24,48.4,40.9,38.5,43.5,38.3,36.3,93,91,81,30.16,30.06,1,0,0,0.00
2012-11-25,47.3,41.3,37.6,43.5,38.9,35.8,93,91,84,30.06,29.96,1,0,0,0.00
2012-11-26,43.7,39.7,36.0,39.9,36.9,33.3,92,90,84,30.02,29.76,0,0,0,0.00
2012-11-27,41.9,41.0,40.3,40.1,39.1,38.1,93,93,92,29.77,29.69,0,0,0,0.00
2012-11-28,43.0,41.9,40.6,41.2,40.1,38.8,93,93,93,29.68,29.39,2,0,0,0.00
2012-11-29,41.2,34.6,31.8,39.4,32.8,29.8,93,93,93,29.52,29.20,3,1,12,0.74
2012-11-30,31.8,30.6,28.8,29.8,28.6,26.8,93,93,93,29.85,29.52,0,0,0,0.00
2012-12-1,29.8,25.1,20.8,27.5,22.8,18.3,93,92,91,29.94,29.85,0,0,0,0.02
2012-12-2,28.9,26.1,22.1,26.6,23.7,19.6,92,91,91,29.90,29.79,0,0,0,0.00
2012-12-3,30.9,29.1,27.3,27.5,26.4,23.9,92,90,82,29.94,29.67,0,0,0,0.00
2012-12-4,33.4,31.6,28.9,31.6,29.5,26.4,93,92,91,29.66,29.44,1,0,7,0.08
2012-12-5,32.4,30.7,27.3,30.4,28.2,24.6,92,91,89,29.65,29.44,0,0,0,0.00
2012-12-6,30.6,26.9,20.8,28.2,22.8,15.8,92,86,77,29.95,29.62,5,1,19,0.00
2012-12-7,25.5,19.9,14.5,21.4,16.0,10.8,90,86,80,29.95,29.76,0,0,0,0.00
2012-12-8,23.7,18.4,14.7,19.2,14.9,11.1,89,88,84,30.16,29.86,0,0,0,0.00
2012-12-9,27.7,20.2,15.4,25.3,17.1,12.0,92,89,83,30.16,29.71,2,0,87,0.00
2012-12-10,32.2,30.3,27.7,30.2,28.2,25.3,93,92,92,29.77,29.60,1,0,15,0.00
2012-12-11,29.1,24.0,19.8,27.1,21.4,16.7,93,91,88,30.10,29.78,1,0,0,0.00
2012-12-12,21.7,17.5,9.0,19.2,14.5,5.2,91,89,86,30.14,30.05,0,0,0,0.00
2012-12-13,25.5,21.9,19.0,22.5,19.1,16.0,91,90,88,30.04,29.93,0,0,0,0.00
2012-12-14,24.3,21.4,19.0,20.1,18.1,16.0,90,88,84,29.93,26.82,0,0,85,0.12
2012-12-15,32.5,27.1,20.5,30.6,24.7,17.8,93,92,90,29.81,29.67,0,0,0,0.00
2012-12-16,38.5,35.5,32.0,36.7,33.7,29.7,93,93,92,29.82,29.78,1,0,0,0.28
2012-12-17,35.8,34.9,33.4,34.0,33.1,31.6,93,93,93,32.31,29.75,0,0,0,0.00
2012-12-18,37.4,35.2,34.3,35.6,33.4,32.5,94,93,93,30.06,29.79,0,0,0,0.04
2012-12-19,34.5,34.4,34.3,32.7,32.6,32.5,93,93,93,30.09,30.06,0,0,0,0.02
2012-12-20,32.9,31.0,28.9,31.3,29.2,27.0,94,94,93,30.22,29.95,0,0,0,0.00
2012-12-21,28.9,28.0,27.3,27.0,25.5,24.8,93,91,91,30.01,29.89,0,0,0,0.00
2012-12-22,32.5,30.6,28.4,30.6,28.3,25.9,92,92,91,30.10,29.95,0,0,0,0.00
2012-12-23,45.7,34.8,32.0,43.7,32.9,29.7,93,93,92,29.94,29.80,0,0,6,0.90
2012-12-24,48.0,44.0,35.6,45.7,41.9,33.4,93,92,89,29.88,29.77,2,0,13,0.00
2012-12-25,48.0,43.3,37.4,40.5,38.2,34.2,92,82,73,29.77,29.66,1,0,8,0.04
2012-12-26,43.9,41.6,38.5,40.3,38.1,34.9,89,88,82,29.92,29.77,2,1,17,0.74
2012-12-27,43.5,41.3,38.8,40.1,37.9,35.6,92,88,83,29.89,29.68,4,1,20,0.18
2012-12-28,41.2,32.7,27.0,39.0,30.2,24.1,92,91,89,30.39,29.77,1,0,11,0.32
2012-12-29,36.3,30.8,26.8,34.2,28.4,23.9,92,91,90,30.36,30.04,0,0,0,0.00
2012-12-30,39.6,32.9,29.3,36.5,30.5,27.0,92,91,88,30.15,30.03,1,0,9,0.00
2012-12-31,41.7,37.6,33.6,36.5,34.0,31.3,92,87,81,30.16,30.02,2,1,17,0.00